Location: Camp Crooked Creek
(37.9149°N, 85.6607°W)
Time: 19:10:03
(UTC-04:00)

Daily predictions for brighter satellites

Satellite Brightness Start Highest point End
(mag) Time Altitude Azimuth Time Altitude Azimuth Time Altitude Azimuth
Cosmos 2219 Rocket 3.1 20:38:20 10° SSE 20:42:53 26° ESE 20:47:26 10° NE
Cosmos 2322 Rocket 4.2 20:38:04 10° SW 20:43:15 35° WNW 20:48:27 10° N
Cosmos 2074 Rocket 4.1 20:37:16 10° S 20:43:29 66° E 20:49:43 10° NNE
ERS-2 3.1 20:41:24 10° SE 20:44:38 30° ENE 20:47:53 10° N
EO 1 Del DPAF 3.6 20:41:41 10° N 20:45:29 70° WNW 20:49:16 10° SSW
Cosmos 1500 Rocket 3.9 20:41:23 10° N 20:45:51 74° W 20:50:16 10° S
NOSS 2-1 (E) 3.7 20:44:19 10° S 20:47:41 36° ESE 20:51:13 10° NE
ATLAS CENTAUR R/B 2.8 20:48:27 10° SE 20:50:07 13° ESE 20:51:49 10° E
Cosmos 2278 Rocket 4.1 20:48:58 10° NNE 20:51:24 13° NE 20:53:51 10° ENE
Cosmos 1726 4.0 20:51:03 10° SSW 20:54:32 36° W 20:58:02 10° N
USA 186 2.5 20:55:36 10° SE 20:57:18 19° ENE 20:59:02 10° NNE
NOSS 3-3 (A) 4.3 20:53:47 10° S 20:59:16 41° ESE 21:05:12 10° NE
NOSS 3-3 (C) 4.3 20:53:54 10° S 20:59:23 40° ESE 21:05:17 10° NE
OAO 2 Rocket 3.5 20:54:51 10° W 21:00:01 64° S 21:04:57 11° ESE
YAOGAN 6 3.2 21:02:25 10° SE 21:05:43 36° ENE 21:09:04 10° N
Cosmos 494 Rocket 4.0 21:01:42 10° NNW 21:06:55 80° ENE 21:12:09 10° SSE
Cosmos 1809 Rocket 4.5 21:03:37 10° S 21:09:39 61° E 21:15:44 10° NNE
USA 267 4.4 21:09:11 10° ENE 21:13:36 19° ESE 21:17:59 10° SSE
Sich 1 3.3 21:09:29 10° N 21:13:37 46° E 21:17:43 10° SSE
Cosmos 1340 2.6 21:10:18 10° S 21:14:02 66° E 21:17:49 10° NNE
In-Cosmos 22 Rocket 4.1 21:08:37 10° N 21:14:07 78° E 21:19:28 10° SSE
Nadezhda 3 Rocket 4.2 21:08:47 10° N 21:14:57 52° E 21:21:06 10° SSE
Cosmos 1151 Rocket 4.4 21:13:26 14° ESE 21:15:27 19° E 21:18:27 10° NE
Cosmos 2251 Rocket 3.7 21:12:51 10° N 21:18:09 55° ENE 21:23:05 12° SE
Cosmos 1939 Rocket 2.9 21:16:18 10° SSE 21:20:04 54° ENE 21:23:53 10° N
SJ-6B 3.4 21:16:57 10° S 21:20:58 60° W 21:24:55 10° NNW
Envisat 3.3 21:19:21 10° S 21:24:23 68° WSW 21:29:28 10° NNW
Cosmos 1825 4.0 21:26:04 10° NE 21:28:15 15° ENE 21:28:24 15° ENE
Meteor 2-14 Rocket 4.4 21:23:08 10° S 21:29:07 66° E 21:35:11 10° NNE
Meteor 2-3 Rocket 4.0 21:25:00 10° N 21:30:22 46° ENE 21:34:38 16° SE
Cosmos 1633 Rocket 3.1 21:28:09 10° N 21:32:26 57° E 21:35:51 16° SSE
Cosmos 2228 Rocket 3.7 21:32:02 18° SE 21:34:38 33° E 21:38:36 10° NNE
Meteor 2-15 Rocket 4.4 21:30:48 10° N 21:36:58 78° E 21:43:05 10° S
SL-8 R/B 4.0 21:33:00 10° SSW 21:37:32 44° SE 21:41:34 13° ENE
Meteor 2-16 Rocket 4.4 21:31:58 10° S 21:38:00 63° E 21:44:04 10° NNE
SL-24 R/B - RUBIN 2 3.4 21:35:41 10° NNW 21:40:03 78° ENE 21:42:35 25° SE
Cosmos 1515 Rocket 4.1 21:37:19 18° SSE 21:40:07 39° E 21:44:16 10° NNE
Thor Agena Rocket 4.3 21:40:44 10° N 21:45:50 56° WNW 21:50:59 10° SSW
ARGOS 4.1 21:44:34 24° ESE 21:46:29 30° ENE 21:51:04 10° N
Cosmos 2154 Rocket 4.3 21:41:53 10° SSW 21:48:07 71° W 21:54:22 10° N
BREEZE-M DEB (TANK) 4.2 21:47:42 10° NW 21:50:02 17° N 21:51:02 14° NE
GEOS 3 Rocket 4.1 21:47:12 10° NE 21:52:03 35° ESE 21:56:48 10° S
Resurs 01 Rocket 2.0 21:52:33 13° S 21:56:31 63° W 22:00:56 10° NNW
Cosmos 1980 3.7 21:51:55 10° S 21:57:29 60° ESE 22:03:05 10° NNE
Meteor 1-27 4.2 21:51:47 10° S 21:57:32 87° W 22:03:16 10° N
Sakura Rocket 4.4 21:57:22 10° SW 21:59:59 19° S 21:59:59 19° S
Cosmos 1328 Rocket 3.6 21:56:54 10° S 22:01:17 77° W 22:05:43 10° N
Cosmos 2333 Rocket 2.4 21:58:04 10° SSW 22:03:44 75° WNW 22:09:25 10° NNE
Spot 2 Rocket 3.7 22:03:43 18° S 22:07:28 70° WSW 22:12:33 10° NNW
Cosmos 2341 Rocket 4.2 22:02:02 10° SSW 22:08:23 74° W 22:14:45 10° N
COSMOS 2428 4.1 22:03:48 10° SW 22:09:09 40° WNW 22:14:32 10° N
Meteor 2-10 Rocket 4.1 22:11:14 39° ESE 22:12:17 43° E 22:17:43 10° NNE
Cosmos 1455 3.3 22:09:01 10° SSW 22:12:39 44° W 22:16:21 10° N
Cosmos 1470 Rocket 3.4 22:09:10 10° N 22:13:35 86° E 22:14:51 46° S
ATLAS 2AS CENTAUR R/B 2.9 22:07:02 10° NNW 22:14:56 77° ENE 22:18:17 36° SE
Cosmos 2218 Rocket 3.9 22:11:56 21° S 22:16:18 70° E 22:22:40 10° NNE
CZ-4B DEB 4.4 22:16:41 80° SW 22:16:47 82° WSW 22:20:18 10° NNW
Cosmos 1844 Rocket 3.7 22:13:31 10° NW 22:18:50 42° WSW 22:22:47 17° SSW
Cosmos 1844 4.2 22:13:41 10° NNW 22:19:15 56° WSW 22:22:30 25° S
Terra 4.1 22:21:55 12° NE 22:21:55 12° NE 22:22:52 10° NE
ATLAS 2A CENTAUR R/B 4.3 22:08:02 10° SW 22:22:39 32° S 22:24:56 29° SSE
Cosmos 2237 Rocket 2.1 22:19:48 10° SSW 22:25:25 86° WNW 22:31:04 10° NNE
Cosmos 1408 2.7 22:21:56 10° N 22:25:16 72° NNW 22:25:16 72° NNW
Cosmos 2219 Rocket 3.5 22:21:14 10° SW 22:26:33 41° WNW 22:31:53 10° N
CSL-04 DEB 4.4 22:27:22 75° SE 22:27:41 83° ENE 22:32:05 10° NNW
ATLAS CENTAUR R/B 2.5 22:25:12 10° SW 22:28:38 39° NW 22:32:13 10° NNE
SPOT 5 4.0 22:30:51 27° NE 22:30:51 27° NE 22:33:54 10° N
Cosmos 2366 rocket 3.9 22:27:18 29° S 22:30:38 82° E 22:36:56 10° N
USA 81 4.4 22:28:06 10° N 22:32:58 47° ENE 22:32:58 47° ENE
MetOp-A 4.0 22:33:30 58° SSE 22:34:36 83° ENE 22:39:59 10° NNW
NOSS 0 Rocket 4.4 22:29:18 10° SW 22:35:23 61° WNW 22:41:32 10° NNE
TRAILBLAZER 4.5 22:35:44 78° SSW 22:36:02 89° ESE 22:40:43 10° NNE
Cosmos 2278 Rocket 2.1 22:30:38 10° NNW 22:36:21 85° ENE 22:37:23 61° SSE
Genesis I 3.5 22:32:17 10° NNW 22:35:58 70° NW 22:35:58 70° NW
H-2A R/B 1.9 22:39:07 69° E 22:39:20 70° ENE 22:44:19 10° N
SL-8 Rocket 4.4 22:34:44 10° SSW 22:40:58 62° W 22:47:13 10° N
Cosmos 1933 Rocket 4.1 22:38:05 10° NNW 22:42:21 52° W 22:42:57 48° WSW
OAO 2 Rocket 4.1 22:39:43 10° W 22:43:55 39° SW 22:43:55 39° SW
NOSS 3-4 (A) 4.4 22:38:22 10° NNW 22:45:04 43° NE 22:46:43 38° E
NOSS 3-4 (C) 4.4 22:38:29 10° NNW 22:45:09 43° NE 22:46:49 38° E
Cosmos 407 Rocket 4.0 22:43:40 10° N 22:48:01 46° NE 22:48:01 46° NE
ERS-1 Rocket 2.9 22:50:18 81° NE 22:50:18 81° NE 22:55:12 10° N
Cosmos 1339 Rocket 4.3 22:44:47 10° N 22:50:54 90° W 22:51:59 63° S
Cosmos 1371 Rocket 4.2 22:50:09 39° SW 22:52:08 71° WNW 22:57:30 10° NNE
USA 267 3.1 22:50:33 10° NE 22:57:07 85° SE 23:03:39 10° SW
Cosmos 1825 4.0 23:00:31 10° NNW 23:03:17 28° WNW 23:03:17 28° WNW
Cosmos 2344 3.5 23:10:53 61° ESE 23:10:53 61° ESE 23:18:22 10° NE
Cosmos 2098 Rocket 4.5 23:11:35 35° W 23:12:11 37° W 23:16:05 10° NNW
Cosmos 2056 Rocket 4.1 23:13:05 52° WSW 23:13:55 57° WNW 23:19:15 10° N
SL-16 R/B 2.4 23:15:04 62° NNE 23:15:04 62° NNE 23:19:46 10° NNE
ARGOS 4.4 23:26:04 31° WSW 23:26:37 32° W 23:31:22 10° NW
USA 234 4.3 23:27:52 30° NE 23:29:19 33° NNE 23:35:02 10° NNW
Cosmos 1943 Rocket 4.4 23:30:05 10° NNE 23:32:07 14° NE 23:32:07 14° NE
Cosmos 1821 Rocket 4.4 23:53:04 59° NW 23:53:04 59° NW 23:58:28 10° N
